Brainerd, MN

6:22 AM CST on January 24, 2018 (GMT -0600)
Brainerd-Crow Wing County Regional

Weather History for KBRD - June, 2013

Change the Weather History Date:

Thursday, June 13, 2013

  Actual Average Record
Temperature  
Mean Temperature 64 °F -  
Max Temperature 77 °F 77 °F 92 °F (1956)
Min Temperature 54 °F 51 °F 34 °F (1969)
Growing Degree Days 14 (Base 50)    
Moisture  
Dew Point 51 °F    
Average Humidity 62    
Maximum Humidity 86    
Minimum Humidity 40    
Precipitation  
Precipitation 0.00 in - - ()
Sea Level Pressure  
Sea Level Pressure 30.10 in    
Wind  
Wind Speed 5 mph (NNE)    
Max Wind Speed 9 mph    
Max Gust Speed -    
Visibility 10 miles    
Events      
Averages and records for this station are not official NWS values.
T = Trace of Precipitation, MM = Missing Value Source: NWS Daily Summary

Daily Weather History Graph

Daily Weather History Graph

Search for Another Location

Airport or City:

Trip Planner

Search our weather history database for the weather conditions in past years. The results will help you decide how hot, cold, wet, or windy it might be!

Date:

Astronomy

Jun. 13, 2013 Rise Set
Actual Time 5:23 AM CDT 9:10 PM CDT
Civil Twilight 4:44 AM CDT 9:49 PM CDT
Nautical Twilight 3:52 AM CDT 10:41 PM CDT
Astronomical Twilight 2:37 AM CDT 11:56 PM CDT
Moon 10:14 AM CDT (6/13) No Moon Set
Length of Visible Light 17h 04m
Length of Day
15h 46m
Waxing Crescent, 22% of the Moon is Illuminated
Jun 13
Waxing Crescent
Jun 16
First Quarter
Jun 23
Full
Jun 29
Last Quarter
Jul 8
New

Hourly Weather History & Observations

Time (CDT) Temp. Dew Point Humidity Pressure Visibility Wind Dir Wind Speed Gust Speed Precip Events Conditions
12:53 AM 57.0 °F 48.9 °F 74% 30.03 in 10.0 mi NNW 4.6 mph - N/A   Clear
1:53 AM 55.0 °F 48.9 °F 80% 30.04 in 10.0 mi NNW 5.8 mph - N/A   Clear
2:53 AM 55.9 °F 50.0 °F 80% 30.06 in 10.0 mi North 5.8 mph - N/A   Clear
3:53 AM 55.9 °F 50.0 °F 80% 30.07 in 10.0 mi NNW 5.8 mph - N/A   Clear
4:53 AM 54.0 °F 50.0 °F 86% 30.09 in 10.0 mi North 5.8 mph - N/A   Clear
5:53 AM 54.0 °F 50.0 °F 86% 30.09 in 10.0 mi North 4.6 mph - N/A   Clear
6:53 AM 59.0 °F 51.1 °F 75% 30.12 in 10.0 mi NNE 8.1 mph - N/A   Clear
7:53 AM 61.0 °F 51.1 °F 70% 30.12 in 10.0 mi NNE 5.8 mph - N/A   Clear
8:53 AM 64.0 °F 53.1 °F 67% 30.12 in 10.0 mi NE 3.5 mph - N/A   Clear
9:53 AM 66.9 °F 53.1 °F 61% 30.12 in 10.0 mi NNE 4.6 mph - N/A   Clear
10:53 AM 68.0 °F 51.1 °F 55% 30.14 in 10.0 mi NNW 8.1 mph - N/A   Clear
11:53 AM 71.1 °F 52.0 °F 51% 30.13 in 10.0 mi North 5.8 mph - N/A   Clear
12:53 PM 72.0 °F 51.1 °F 48% 30.13 in 10.0 mi Variable 5.8 mph - N/A   Clear
1:53 PM 73.9 °F 52.0 °F 46% 30.12 in 10.0 mi ENE 9.2 mph - N/A   Scattered Clouds
2:53 PM 75.9 °F 50.0 °F 40% 30.12 in 10.0 mi Variable 4.6 mph - N/A   Partly Cloudy
3:53 PM 75.9 °F 51.1 °F 42% 30.10 in 10.0 mi ENE 9.2 mph - N/A   Clear
4:53 PM 75.0 °F 51.1 °F 43% 30.10 in 10.0 mi Variable 3.5 mph - N/A   Partly Cloudy
5:53 PM 75.9 °F 52.0 °F 43% 30.08 in 10.0 mi East 3.5 mph - N/A   Clear
6:53 PM 75.0 °F 50.0 °F 41% 30.08 in 10.0 mi SE 6.9 mph - N/A   Clear
7:53 PM 73.0 °F 50.0 °F 44% 30.08 in 10.0 mi SE 6.9 mph - N/A   Clear
8:53 PM 69.1 °F 52.0 °F 54% 30.08 in 10.0 mi Calm Calm - N/A   Clear
9:53 PM 62.1 °F 53.1 °F 72% 30.10 in 10.0 mi Calm Calm - N/A   Unknown
10:53 PM 59.0 °F 52.0 °F 78% 30.12 in 10.0 mi Calm Calm - N/A   Clear
11:53 PM 63.0 °F 48.9 °F 60% 30.10 in 10.0 mi SE 5.8 mph - N/A   Clear